Regional Weather Roundup
Issued by NWS Burlington, VT

Current Version | Previous Version | Text Only | Print | Product List | Glossary On
Versions: 1 2 3 4 5 6 7 8 9 10 11 12 13 14 15 16 17 18 19 20 21 22 23 24 25 26 27
000 ASUS41 KBTV 260910 RWRBTV VERMONT REGIONAL WEATHER ROUNDUP NATIONAL WEATHER SERVICE BURLINGTON VT 500 AM EDT SUN OCT 26 2014 NOTE: "FAIR" INDICATES FEW OR NO CLOUDS BELOW 12,000 FEET WITH NO SIGNIFICANT WEATHER AND/OR OBSTRUCTIONS TO VISIBILITY. * THESE REPORTS ARE NOT UNDER NWS QUALITY CONTROL AND/OR DO NOT REPORT WEATHER SUCH AS PRECIPITATION AND FOG. VTZ001>019-261000- _____VERMONT_____ CITY SKY/WX TMP DP RH WIND PRES REMARKS BURLINGTON CLOUDY 47 44 90 SE5 29.43R MONTPELIER CLOUDY 45 41 86 W7 29.44F MORRISVILLE PTSUNNY 43 41 93 CALM 29.43S ST. JOHNSBURY* N/A 44 43 96 MISG 29.39F LYNDONVILLE* CLOUDY 45 42 90 SW5 29.42S MIDDLEBURY* DRIZZLE 48 48 100 CALM 29.44R RUTLAND* CLOUDY 50 41 71 W15G22 29.43F SPRINGFIELD CLOUDY 40 40 100 CALM 29.44S FOG HIGHGATE* CLOUDY 47 43 87 W3 29.42S NEWPORT* CLOUDY 45 41 87 W3 29.41R BENNINGTON CLOUDY 49 41 74 SW12 29.50R SUTTON* N/A 43 N/A N/A MISG N/A _____LAKE CHAMPLAIN_____ CITY SKY/WX TMP DP RH WIND PRES REMARKS COLCHESTER RF* N/A 52 43 71 NW15 N/A DIAMOND ISL* N/A 50 45 81 W9 N/A $$ NYZ007-026>031-035-052-083-261000- _____NORTHERN NEW YORK_____ CITY SKY/WX TMP DP RH WIND PRES REMARKS PLATTSBURGH CLOUDY 48 42 80 VRB5 29.42S SARANAC LAKE RAIN 42 40 92 VRB6 29.43S MASSENA LGT RAIN 47 43 86 W9 29.47R OGDENSBURG* LGT RAIN 46 45 93 CALM 29.48S POTSDAM* RAIN 46 45 93 W9 29.48R WATERTOWN LGT RAIN 50 38 63 W10G22 29.53R FT DRUM LGT RAIN 47 38 73 NW9G18 29.51R ALBANY CLOUDY 49 43 80 W7 29.53R GLENS FALLS CLOUDY 50 43 77 SW9 29.47S $$ NHZ002-005-011-261000- _____NEW HAMPSHIRE_____ CITY SKY/WX TMP DP RH WIND PRES REMARKS LEBANON PTSUNNY 41 38 89 CALM 29.41F FOG KEENE PTSUNNY 43 36 75 SW8 29.45F MT WASHINGTON SNOW 27 27 100 NW43G49 N/A VSB 0 WCI 8 PLYMOUTH FOG 38 38 100 CALM 29.40F VSB 3/4 WHITEFIELD CLOUDY 45 42 89 CALM 29.41S $$ _____REGIONAL QUEBEC LOCATIONS_____ CITY SKY/WX TMP DP RH WIND PRES REMARKS MONTREAL CLOUDY 46 45 93 SW9 29.41S QUEBEC CITY CLOUDY 43 39 87 E6 29.35F SHERBROOKE CLOUDY 46 45 93 SW9 29.37R _____REGIONAL ONTARIO LOCATIONS_____ CITY SKY/WX TMP DP RH WIND PRES REMARKS OTTAWA LGT RAIN 45 43 93 W9 29.47R ______KEY______ VSB - VISIBILITY IN MILES WCI - WIND CHILL INDEX HX - HEAT INDEX $$ NNNN

USA.gov is the U.S. government's official web portal to all federal, state and local government web resources and services.